Simultaneous Nadir Overpasses (SNOs) Predictions

Prediction of SNOs between GOES-14 and AQUA Satellite Orbit:

Table of predicted SNOs for the next 14.0 days since TLE Epoch: 6/6/2020
Index Date Time (GOES-14) GOES-14 Lat,Lon AQUA Lat,Lon Distance(km) Time Diff (sec)
1 06/07/2020 20:26:47 0.03,-104.33 0.44,-102.50 207.97 80
2 06/08/2020 08:45:22 -0.05,-104.16 0.68,-107.65 397.06 80
3 06/10/2020 08:33:11 -0.05,-104.17 0.04,-104.70 59.94 80
4 06/12/2020 08:23:39 -0.04,-104.18 -0.55,-101.73 277.63 80
5 06/12/2020 20:42:24 0.07,-104.36 -0.51,-106.94 294.17 80
6 06/14/2020 20:32:53 0.07,-104.37 0.15,-103.98 43.62 80
7 06/16/2020 20:20:42 0.06,-104.38 0.80,-101.03 381.43 80
8 06/17/2020 08:39:17 -0.09,-104.21 0.33,-106.18 224.50 80
9 06/19/2020 08:29:46 -0.10,-104.22 -0.32,-103.23 113.02 80
10 06/19/2020 20:48:31 0.12,-104.41 -0.71,-108.44 457.90 80




NCC Satellite Simultaneous Nadir Overpasses (SNOs) Prediction Service
